^^
Station Historical Data
Daily Summary for October 10, 2018 Units:  Metric    English   Both
« Previous Day
Next Day »
Daily Weekly Monthly Yearly Custom
  High: Low: Average:
Temperature: -17.8 °C 7.8 °C 13.6 °C
Dew Point: -17.8 °C 7.2 °C 13.3 °C
Humidity: Humidity % 93 % 98 %
Wind Speed: 0 km/h 0 km/h 0.3 km/h
Wind Gust: 0 km/h - -
Wind:- - West
Pressure: 0 hPa 1010.7 hPa -
Precipitation: 6.1 mm    
Historical Graphs
 
 
Tabular Data for October 10, 2018
Time Temperature Dew Point Pressure Wind Wind Speed Wind Gust Humidity Rainfall Rate (Hourly) solar Conditions
-17.8 °C -17.8 °C 0 hPa Calm     Humidity % 0 mm SoftwareType W/m2 Conditions
00:00 20.9 °C 19.7 °C 1014.4 hPa WNW 1.6 km/h 9.7 km/h 93 % 0 mm WeatherDisplay:10.37 W/m2 RA
00:05 20.9 °C 19.7 °C 1014.8 hPa WNW 1.6 km/h 6.4 km/h 93 % 0 mm WeatherDisplay:10.37 W/m2 RA
00:10 20.9 °C 19.7 °C 1014.8 hPa Calm   3.2 km/h 93 % 0 mm WeatherDisplay:10.37 W/m2 FEW
00:15 20.8 °C 19.7 °C 1014.8 hPa Calm   8 km/h 93 % 0 mm WeatherDisplay:10.37 W/m2 FEW
00:20 20.8 °C 19.7 °C 1014.8 hPa Calm   8 km/h 93 % 0 mm WeatherDisplay:10.37 W/m2 FEW
00:25 20.8 °C 19.6 °C 1014.8 hPa Calm   3.2 km/h 93 % 0 mm WeatherDisplay:10.37 W/m2 FEW
00:30 20.8 °C 19.6 °C 1014.8 hPa Calm   6.4 km/h 93 % 0 mm WeatherDisplay:10.37 W/m2 FEW
00:35 20.7 °C 19.6 °C 1014.4 hPa Calm     93 % 0 mm WeatherDisplay:10.37 W/m2 FEW
00:40 20.7 °C 19.6 °C 1014.4 hPa Calm   3.2 km/h 93 % 0 mm WeatherDisplay:10.37 W/m2 FEW
00:45 20.7 °C 19.7 °C 1014.4 hPa Calm   3.2 km/h 94 % 0 mm WeatherDisplay:10.37 W/m2 FEW
00:50 20.7 °C 19.5 °C 1014.4 hPa Calm   6.4 km/h 93 % 0 mm WeatherDisplay:10.37 W/m2 FEW
00:55 20.6 °C 19.4 °C 1014.4 hPa Calm   3.2 km/h 93 % 0 mm WeatherDisplay:10.37 W/m2 FEW
01:00 20.6 °C 19.6 °C 1014.4 hPa Calm   4.8 km/h 94 % 0 mm WeatherDisplay:10.37 W/m2 FEW
01:05 20.6 °C 19.6 °C 1014.4 hPa Calm   4.8 km/h 94 % 0 mm WeatherDisplay:10.37 W/m2 FEW
01:10 20.6 °C 19.6 °C 1014.4 hPa Calm   6.4 km/h 94 % 0 mm WeatherDisplay:10.37 W/m2 FEW
01:15 20.5 °C 19.5 °C 1014.4 hPa Calm   1.6 km/h 94 % 0 mm WeatherDisplay:10.37 W/m2 FEW
01:20 20.5 °C 19.5 °C 1014.8 hPa WNW 1.6 km/h 8 km/h 94 % 0 mm WeatherDisplay:10.37 W/m2 FEW
01:25 20.5 °C 19.5 °C 1014.4 hPa West 4.8 km/h 14.5 km/h 94 % 0 mm WeatherDisplay:10.37 W/m2 FEW
01:30 20.6 °C 19.7 °C 1014.4 hPa WNW 3.2 km/h 12.9 km/h 95 % 0.25 mm WeatherDisplay:10.37 W/m2 RA
01:35 20.6 °C 19.8 °C 1014.4 hPa Calm   16.1 km/h 95 % 0.25 mm WeatherDisplay:10.37 W/m2 RA
01:40 20.6 °C 19.8 °C 1014.4 hPa Calm   4.8 km/h 95 % 0.25 mm WeatherDisplay:10.37 W/m2 RA
01:45 20.6 °C 19.8 °C 1014.4 hPa NW 1.6 km/h 6.4 km/h 95 % 0.51 mm WeatherDisplay:10.37 W/m2 RA
01:50 20.6 °C 19.7 °C 1014.4 hPa NW 1.6 km/h 6.4 km/h 95 % 0.76 mm WeatherDisplay:10.37 W/m2 RA
01:55 20.6 °C 19.7 °C 1014.4 hPa NW 1.6 km/h 6.4 km/h 95 % 0.25 mm WeatherDisplay:10.37 W/m2 RA
02:00 20.5 °C 19.7 °C 1014.1 hPa NW 1.6 km/h 8 km/h 95 % 0 mm WeatherDisplay:10.37 W/m2 RA
02:05 20.5 °C 19.8 °C 1014.4 hPa Calm   3.2 km/h 96 % 0 mm WeatherDisplay:10.37 W/m2 FEW
02:10 20.4 °C 19.8 °C 1014.4 hPa Calm     96 % 0 mm WeatherDisplay:10.37 W/m2 FEW
02:15 20.4 °C 19.7 °C 1014.1 hPa Calm   4.8 km/h 96 % 0 mm WeatherDisplay:10.37 W/m2 FEW
02:20 20.4 °C 19.7 °C 1014.1 hPa WNW 1.6 km/h 8 km/h 96 % 0 mm WeatherDisplay:10.37 W/m2 FEW
02:25 20.3 °C 19.7 °C 1014.1 hPa Calm   4.8 km/h 96 % 0 mm WeatherDisplay:10.37 W/m2 FEW
02:30 20.3 °C 19.6 °C 1014.1 hPa WNW 1.6 km/h 6.4 km/h 96 % 0 mm WeatherDisplay:10.37 W/m2 FEW
02:35 20.2 °C 19.6 °C 1014.1 hPa Calm   6.4 km/h 96 % 0 mm WeatherDisplay:10.37 W/m2 FEW
02:40 20.2 °C 19.6 °C 1014.1 hPa WNW 1.6 km/h 11.3 km/h 96 % 0 mm WeatherDisplay:10.37 W/m2 FEW
02:45 20.2 °C 19.5 °C 1014.1 hPa WNW 1.6 km/h 11.3 km/h 96 % 0 mm WeatherDisplay:10.37 W/m2 FEW
02:50 20.1 °C 19.4 °C 1014.1 hPa WNW 1.6 km/h 9.7 km/h 96 % 0 mm WeatherDisplay:10.37 W/m2 FEW
02:55 20.1 °C 19.4 °C 1013.8 hPa WNW 1.6 km/h 14.5 km/h 96 % 0 mm WeatherDisplay:10.37 W/m2 FEW
03:00 20.1 °C 19.4 °C 1013.8 hPa Calm   19.3 km/h 96 % 0 mm WeatherDisplay:10.37 W/m2 FEW
03:05 20 °C 19.3 °C 1013.8 hPa WNW 1.6 km/h 9.7 km/h 96 % 0 mm WeatherDisplay:10.37 W/m2 FEW
03:10 19.9 °C 19.3 °C 1013.8 hPa WNW 1.6 km/h 9.7 km/h 96 % 0 mm WeatherDisplay:10.37 W/m2 FEW
03:15 19.9 °C 19.2 °C 1013.8 hPa NW 1.6 km/h 9.7 km/h 96 % 0 mm WeatherDisplay:10.37 W/m2 FEW
03:20 19.8 °C 19.2 °C 1013.8 hPa WNW 1.6 km/h 14.5 km/h 96 % 0 mm WeatherDisplay:10.37 W/m2 FEW
03:25 19.8 °C 19.8 °C 1013.8 hPa Calm   9.7 km/h 100 % 0 mm WeatherDisplay:10.37 W/m2 FEW
03:30 19.8 °C 19.8 °C 1013.8 hPa NW 4.8 km/h 12.9 km/h 100 % 0 mm WeatherDisplay:10.37 W/m2 FEW
03:35 19.8 °C 19.8 °C 1013.8 hPa NW 1.6 km/h 9.7 km/h 100 % 0 mm WeatherDisplay:10.37 W/m2 FEW
03:40 19.7 °C 19.7 °C 1013.8 hPa NW 3.2 km/h 8 km/h 100 % 0 mm WeatherDisplay:10.37 W/m2 FEW
03:45 19.7 °C 19.7 °C 1013.8 hPa Calm   8 km/h 100 % 0 mm WeatherDisplay:10.37 W/m2 FEW
03:50 19.7 °C 19.7 °C 1014.1 hPa WNW 1.6 km/h 11.3 km/h 100 % 0 mm WeatherDisplay:10.37 W/m2 FEW
03:55 19.6 °C 19.6 °C 1014.1 hPa NW 3.2 km/h 14.5 km/h 100 % 0 mm WeatherDisplay:10.37 W/m2 FEW
04:00 19.6 °C 19.6 °C 1014.4 hPa NW 1.6 km/h 11.3 km/h 100 % 0 mm WeatherDisplay:10.37 W/m2 FEW
04:05 19.6 °C 19.6 °C 1014.1 hPa NW 3.2 km/h 9.7 km/h 100 % 0 mm WeatherDisplay:10.37 W/m2 FEW
04:10 19.6 °C 19.6 °C 1014.4 hPa WNW 1.6 km/h 11.3 km/h 100 % 0 mm WeatherDisplay:10.37 W/m2 FEW
04:15 19.7 °C 19.7 °C 1014.1 hPa WNW 1.6 km/h 11.3 km/h 100 % 1.52 mm WeatherDisplay:10.37 W/m2 RA
04:20 19.7 °C 19.7 °C 1014.4 hPa NW 1.6 km/h 8 km/h 100 % 0 mm WeatherDisplay:10.37 W/m2 RA
04:25 19.7 °C 19.7 °C 1014.4 hPa WNW 1.6 km/h 8 km/h 100 % 0.25 mm WeatherDisplay:10.37 W/m2 RA
04:30 19.7 °C 19.7 °C 1014.1 hPa Calm   8 km/h 100 % 0 mm WeatherDisplay:10.37 W/m2 RA
04:35 19.7 °C 19.7 °C 1014.1 hPa Calm   4.8 km/h 100 % 0 mm WeatherDisplay:10.37 W/m2 FEW
04:40 19.6 °C 19.6 °C 1014.4 hPa Calm   4.8 km/h 100 % 0 mm WeatherDisplay:10.37 W/m2 FEW
04:45 19.6 °C 19.6 °C 1014.4 hPa WNW 1.6 km/h 6.4 km/h 100 % 0 mm WeatherDisplay:10.37 W/m2 FEW
04:50 19.6 °C 19.6 °C 1014.4 hPa Calm   4.8 km/h 100 % 0.25 mm WeatherDisplay:10.37 W/m2 RA
04:55 19.6 °C 19.6 °C 1014.4 hPa Calm   6.4 km/h 100 % 0 mm WeatherDisplay:10.37 W/m2 RA
05:00 19.6 °C 19.6 °C 1014.4 hPa Calm   4.8 km/h 100 % 0 mm WeatherDisplay:10.37 W/m2 FEW
05:05 19.6 °C 19.6 °C 1014.1 hPa Calm   3.2 km/h 100 % 0 mm WeatherDisplay:10.37 W/m2 FEW
05:10 19.6 °C 19.6 °C 1014.1 hPa Calm   1.6 km/h 100 % 0 mm WeatherDisplay:10.37 W/m2 FEW
05:15 19.5 °C 19.5 °C 1014.1 hPa Calm     100 % 0 mm WeatherDisplay:10.37 W/m2 FEW
05:20 19.5 °C 19.5 °C 1014.1 hPa Calm   1.6 km/h 100 % 0 mm WeatherDisplay:10.37 W/m2 FEW
05:25 19.4 °C 19.4 °C 1014.1 hPa Calm   1.6 km/h 100 % 0 mm WeatherDisplay:10.37 W/m2 FEW
05:30 19.4 °C 19.4 °C 1014.1 hPa Calm     100 % 0 mm WeatherDisplay:10.37 W/m2 FEW
05:35 19.3 °C 19.3 °C 1014.4 hPa Calm     100 % 0 mm WeatherDisplay:10.37 W/m2 FEW
05:40 19.3 °C 19.3 °C 1014.4 hPa Calm   1.6 km/h 100 % 0 mm WeatherDisplay:10.37 W/m2 FEW
05:45 19.3 °C 19.3 °C 1014.1 hPa WNW 1.6 km/h 6.4 km/h 100 % 0 mm WeatherDisplay:10.37 W/m2 FEW
05:50 19.3 °C 19.3 °C 1014.1 hPa Calm   1.6 km/h 100 % 0.25 mm WeatherDisplay:10.37 W/m2 RA
05:55 19.3 °C 19.3 °C 1014.1 hPa Calm     100 % 0 mm WeatherDisplay:10.37 W/m2 RA
06:00 19.2 °C 19.2 °C 1014.1 hPa Calm     100 % 0 mm WeatherDisplay:10.37 W/m2 FEW
06:05 19.2 °C 19.2 °C 1014.1 hPa Calm     100 % 0 mm WeatherDisplay:10.37 W/m2 FEW
06:10 19.2 °C 19.2 °C 1014.1 hPa Calm     100 % 0 mm WeatherDisplay:10.37 W/m2 FEW
06:15 19.2 °C 19.2 °C 1014.1 hPa Calm     100 % 0 mm WeatherDisplay:10.37 W/m2 FEW
06:20 19.1 °C 19.1 °C 1014.1 hPa Calm     100 % 0 mm WeatherDisplay:10.37 W/m2 FEW
06:25 19.1 °C 19.1 °C 1014.1 hPa Calm   1.6 km/h 100 % 0 mm WeatherDisplay:10.37 W/m2 FEW
06:30 19.1 °C 19.1 °C 1014.4 hPa Calm   1.6 km/h 100 % 0 mm WeatherDisplay:10.37 W/m2 FEW
06:35 19.1 °C 19.1 °C 1014.4 hPa Calm   4.8 km/h 100 % 0 mm WeatherDisplay:10.37 W/m2 FEW
06:40 19.1 °C 19.1 °C 1014.4 hPa Calm   3.2 km/h 100 % 0 mm WeatherDisplay:10.37 W/m2 FEW
06:45 19 °C 19 °C 1014.1 hPa Calm     100 % 0 mm WeatherDisplay:10.37 W/m2 FEW
06:50 19 °C 19 °C 1014.4 hPa Calm     100 % 0 mm WeatherDisplay:10.37 W/m2 FEW
06:55 19 °C 19 °C 1014.4 hPa Calm   1.6 km/h 100 % 0 mm WeatherDisplay:10.37 W/m2 FEW
07:00 19 °C 19 °C 1014.4 hPa Calm     100 % 0 mm WeatherDisplay:10.37 W/m2 FEW
07:05 19 °C 19 °C 1014.4 hPa Calm     100 % 0 mm WeatherDisplay:10.37 W/m2 FEW
07:10 19 °C 19 °C 1014.4 hPa Calm     100 % 0 mm WeatherDisplay:10.37 W/m2 FEW
07:15 19 °C 19 °C 1014.4 hPa Calm     100 % 0 mm WeatherDisplay:10.37 W/m2 FEW
07:20 18.9 °C 18.9 °C 1014.8 hPa Calm     100 % 0 mm WeatherDisplay:10.37 W/m2 FEW
07:25 18.9 °C 18.9 °C 1014.8 hPa Calm     100 % 0 mm WeatherDisplay:10.37 W/m2 FEW
07:30 18.9 °C 18.9 °C 1014.8 hPa Calm     100 % 0 mm WeatherDisplay:10.37 W/m2 FEW
07:35 18.9 °C 18.9 °C 1015.1 hPa Calm     100 % 0 mm WeatherDisplay:10.37 W/m2 FEW
07:40 18.9 °C 18.9 °C 1015.1 hPa Calm     100 % 0 mm WeatherDisplay:10.37 W/m2 FEW
07:45 18.8 °C 18.8 °C 1015.1 hPa Calm     100 % 0 mm WeatherDisplay:10.37 W/m2 FEW
07:50 18.8 °C 18.8 °C 1015.1 hPa Calm     100 % 0 mm WeatherDisplay:10.37 W/m2 FEW
07:55 18.8 °C 18.8 °C 1015.1 hPa Calm     100 % 0 mm WeatherDisplay:10.37 W/m2 FEW
08:00 18.8 °C 18.8 °C 1015.1 hPa WNW 1.6 km/h 12.9 km/h 100 % 0 mm WeatherDisplay:10.37 W/m2 FEW
08:05 18.4 °C 17.9 °C 1015.5 hPa Calm   9.7 km/h 97 % 0 mm WeatherDisplay:10.37 W/m2 FEW
08:10 17.7 °C 16.9 °C 1015.5 hPa Calm   4.8 km/h 95 % 0.25 mm WeatherDisplay:10.37 W/m2 RA
08:15 17 °C 16.2 °C 1015.5 hPa East 1.6 km/h 8 km/h 95 % 0 mm WeatherDisplay:10.37 W/m2 RA
08:20 16.4 °C 15.4 °C 1015.5 hPa Calm   6.4 km/h 94 % 0 mm WeatherDisplay:10.37 W/m2 FEW
08:25 15.9 °C 14.9 °C 1015.5 hPa Calm   8 km/h 94 % 0 mm WeatherDisplay:10.37 W/m2 FEW
08:30 15.5 °C 14.6 °C 1015.8 hPa Calm   8 km/h 94 % 0 mm WeatherDisplay:10.37 W/m2 FEW
08:35 15.3 °C 14.3 °C 1015.8 hPa Calm   8 km/h 94 % 0.51 mm WeatherDisplay:10.37 W/m2 RA
08:40 15 °C 14.1 °C 1015.8 hPa ESE 1.6 km/h 4.8 km/h 94 % 0.25 mm WeatherDisplay:10.37 W/m2 RA
08:45 14.7 °C 13.6 °C 1015.8 hPa Calm   1.6 km/h 93 % 0 mm WeatherDisplay:10.37 W/m2 RA
08:50 14.5 °C 13.6 °C 1015.8 hPa Calm     94 % 0 mm WeatherDisplay:10.37 W/m2 FEW
08:55 14.3 °C 13.3 °C 1015.8 hPa Calm     94 % 0 mm WeatherDisplay:10.37 W/m2 FEW
09:00 14.1 °C 13.1 °C 1016.1 hPa Calm     94 % 0 mm WeatherDisplay:10.37 W/m2 FEW
09:05 13.8 °C 12.7 °C 1016.1 hPa Calm   4.8 km/h 93 % 0 mm WeatherDisplay:10.37 W/m2 FEW
09:10 13.6 °C 12.6 °C 1016.1 hPa Calm   3.2 km/h 94 % 0 mm WeatherDisplay:10.37 W/m2 FEW
09:15 13.3 °C 12.2 °C 1016.1 hPa Calm   3.2 km/h 93 % 0 mm WeatherDisplay:10.37 W/m2 FEW
09:20 13.1 °C 11.9 °C 1016.1 hPa Calm   4.8 km/h 93 % 0 mm WeatherDisplay:10.37 W/m2 FEW
09:25 12.8 °C 11.9 °C 1016.1 hPa Calm     94 % 0 mm WeatherDisplay:10.37 W/m2 FEW
09:30 12.7 °C 11.6 °C 1016.1 hPa Calm   3.2 km/h 93 % 0 mm WeatherDisplay:10.37 W/m2 FEW
09:35 12.5 °C 11.6 °C 1016.1 hPa Calm   16.1 km/h 94 % 0 mm WeatherDisplay:10.37 W/m2 FEW
09:40 12.2 °C 11.3 °C 1016.1 hPa Calm   8 km/h 94 % 0 mm WeatherDisplay:10.37 W/m2 FEW
09:45 12 °C 11.1 °C 1016.1 hPa Calm   1.6 km/h 94 % 0 mm WeatherDisplay:10.37 W/m2 FEW
09:50 11.9 °C 10.9 °C 1016.1 hPa Calm   3.2 km/h 94 % 0 mm WeatherDisplay:10.37 W/m2 FEW
09:55 11.8 °C 10.8 °C 1016.1 hPa Calm   4.8 km/h 94 % 0 mm WeatherDisplay:10.37 W/m2 FEW
10:00 11.7 °C 10.8 °C 1016.1 hPa Calm     94 % 0 mm WeatherDisplay:10.37 W/m2 FEW
10:10 11.6 °C 10.8 °C 1015.8 hPa Calm   6.4 km/h 95 % 0 mm WeatherDisplay:10.37 W/m2 FEW
10:15 11.5 °C 10.7 °C 1015.8 hPa Calm   3.2 km/h 95 % 0 mm WeatherDisplay:10.37 W/m2 FEW
10:20 11.4 °C 10.7 °C 1015.8 hPa Calm     95 % 0 mm WeatherDisplay:10.37 W/m2 FEW
10:25 11.4 °C 10.6 °C 1015.8 hPa Calm   3.2 km/h 95 % 0 mm WeatherDisplay:10.37 W/m2 FEW
10:35 11.3 °C 10.5 °C 1015.8 hPa Calm     95 % 0 mm WeatherDisplay:10.37 W/m2 FEW
10:40 11.2 °C 10.4 °C 1015.8 hPa Calm     95 % 0 mm WeatherDisplay:10.37 W/m2 FEW
10:45 11.2 °C 10.6 °C 1015.8 hPa Calm   4.8 km/h 96 % 0 mm WeatherDisplay:10.37 W/m2 FEW
10:50 11.1 °C 10.5 °C 1015.8 hPa Calm     96 % 0.25 mm WeatherDisplay:10.37 W/m2 RA
10:55 11.1 °C 10.5 °C 1015.5 hPa Calm     96 % 0 mm WeatherDisplay:10.37 W/m2 RA
11:00 11.1 °C 10.5 °C 1015.5 hPa Calm   4.8 km/h 96 % 0 mm WeatherDisplay:10.37 W/m2 FEW
11:05 11.1 °C 10.5 °C 1015.8 hPa Calm     96 % 0 mm WeatherDisplay:10.37 W/m2 FEW
11:10 11.1 °C 10.5 °C 1015.8 hPa Calm   1.6 km/h 96 % 0 mm WeatherDisplay:10.37 W/m2 FEW
11:15 11.1 °C 10.4 °C 1015.5 hPa Calm   3.2 km/h 96 % 0 mm WeatherDisplay:10.37 W/m2 FEW
11:20 11 °C 10.4 °C 1015.5 hPa ESE 1.6 km/h 9.7 km/h 96 % 0 mm WeatherDisplay:10.37 W/m2 FEW
11:25 10.9 °C 10.3 °C 1015.5 hPa Calm   3.2 km/h 96 % 0 mm WeatherDisplay:10.37 W/m2 FEW
11:35 10.9 °C 10.3 °C 1015.1 hPa Calm     96 % 0 mm WeatherDisplay:10.37 W/m2 FEW
11:40 10.9 °C 10.3 °C 1015.1 hPa Calm   1.6 km/h 96 % 0 mm WeatherDisplay:10.37 W/m2 FEW
11:45 10.8 °C 10.2 °C 1015.1 hPa Calm     96 % 0 mm WeatherDisplay:10.37 W/m2 FEW
11:50 10.8 °C 10.2 °C 1015.5 hPa Calm   3.2 km/h 96 % 0 mm WeatherDisplay:10.37 W/m2 FEW
11:55 10.7 °C 10.1 °C 1015.1 hPa Calm   1.6 km/h 96 % 0 mm WeatherDisplay:10.37 W/m2 FEW
12:00 10.7 °C 10.1 °C 1015.1 hPa Calm   4.8 km/h 96 % 0 mm WeatherDisplay:10.37 W/m2 FEW
12:10 10.6 °C 10 °C 1015.1 hPa Calm     96 % 0 mm WeatherDisplay:10.37 W/m2 FEW
12:15 10.6 °C 10.6 °C 1015.1 hPa Calm   1.6 km/h 100 % 0 mm WeatherDisplay:10.37 W/m2 FEW
12:25 10.7 °C 10.7 °C 1014.8 hPa Calm     100 % 0 mm WeatherDisplay:10.37 W/m2 FEW
12:30 10.7 °C 10.7 °C 1014.8 hPa Calm     100 % 0 mm WeatherDisplay:10.37 W/m2 FEW
12:40 10.7 °C 10.7 °C 1014.8 hPa Calm   4.8 km/h 100 % 0 mm WeatherDisplay:10.37 W/m2 FEW
12:45 10.7 °C 10.7 °C 1014.4 hPa Calm   4.8 km/h 100 % 0 mm WeatherDisplay:10.37 W/m2 FEW
12:55 10.7 °C 10.7 °C 1014.4 hPa Calm   4.8 km/h 100 % 0 mm WeatherDisplay:10.37 W/m2 FEW
13:00 10.6 °C 10.6 °C 1014.4 hPa Calm   12.9 km/h 100 % 0 mm WeatherDisplay:10.37 W/m2 FEW
13:10 10.7 °C 10.7 °C 1014.1 hPa Calm   3.2 km/h 100 % 0 mm WeatherDisplay:10.37 W/m2 FEW
13:15 10.7 °C 10.7 °C 1014.1 hPa Calm   1.6 km/h 100 % 0 mm WeatherDisplay:10.37 W/m2 FEW
13:20 10.7 °C 10.7 °C 1014.1 hPa Calm   4.8 km/h 100 % 0 mm WeatherDisplay:10.37 W/m2 FEW
13:30 10.7 °C 10.7 °C 1014.1 hPa Calm   1.6 km/h 100 % 0 mm WeatherDisplay:10.37 W/m2 FEW
13:40 10.8 °C 10.8 °C 1014.1 hPa Calm   1.6 km/h 100 % 0 mm WeatherDisplay:10.37 W/m2 FEW
13:50 10.9 °C 10.9 °C 1014.1 hPa Calm   1.6 km/h 100 % 0 mm WeatherDisplay:10.37 W/m2 FEW
13:55 10.9 °C 10.9 °C 1014.1 hPa Calm   4.8 km/h 100 % 0 mm WeatherDisplay:10.37 W/m2 FEW
14:05 10.9 °C 10.9 °C 1013.8 hPa Calm   1.6 km/h 100 % 0 mm WeatherDisplay:10.37 W/m2 FEW
14:15 10.9 °C 10.9 °C 1013.8 hPa Calm     100 % 0 mm WeatherDisplay:10.37 W/m2 FEW
14:20 10.9 °C 10.9 °C 1013.8 hPa Calm   1.6 km/h 100 % 0 mm WeatherDisplay:10.37 W/m2 FEW
14:25 10.9 °C 10.9 °C 1013.8 hPa Calm   1.6 km/h 100 % 0 mm WeatherDisplay:10.37 W/m2 FEW
14:30 10.8 °C 10.8 °C 1013.4 hPa Calm   3.2 km/h 100 % 0 mm WeatherDisplay:10.37 W/m2 FEW
14:35 10.8 °C 10.8 °C 1013.8 hPa Calm     100 % 0 mm WeatherDisplay:10.37 W/m2 FEW
14:45 10.8 °C 10.8 °C 1013.8 hPa Calm     100 % 0 mm WeatherDisplay:10.37 W/m2 FEW
14:50 10.8 °C 10.8 °C 1013.8 hPa Calm   6.4 km/h 100 % 0 mm WeatherDisplay:10.37 W/m2 FEW
14:55 10.7 °C 10.7 °C 1013.8 hPa Calm   1.6 km/h 100 % 0 mm WeatherDisplay:10.37 W/m2 FEW
15:00 10.7 °C 10.7 °C 1013.8 hPa Calm   4.8 km/h 100 % 0 mm WeatherDisplay:10.37 W/m2 FEW
15:05 10.7 °C 10.7 °C 1013.8 hPa Calm   1.6 km/h 100 % 0 mm WeatherDisplay:10.37 W/m2 FEW
15:10 10.7 °C 10.7 °C 1013.8 hPa Calm   1.6 km/h 100 % 0 mm WeatherDisplay:10.37 W/m2 FEW
15:15 10.7 °C 10.7 °C 1013.8 hPa Calm   1.6 km/h 100 % 0 mm WeatherDisplay:10.37 W/m2 FEW
15:25 10.7 °C 10.7 °C 1013.8 hPa Calm   8 km/h 100 % 0 mm WeatherDisplay:10.37 W/m2 FEW
15:30 10.6 °C 10.6 °C 1013.8 hPa Calm   1.6 km/h 100 % 0 mm WeatherDisplay:10.37 W/m2 FEW
15:35 10.6 °C 10.6 °C 1013.4 hPa Calm   8 km/h 100 % 0 mm WeatherDisplay:10.37 W/m2 FEW
15:40 10.6 °C 10.6 °C 1013.4 hPa Calm   1.6 km/h 100 % 0 mm WeatherDisplay:10.37 W/m2 FEW
15:45 10.6 °C 10.6 °C 1013.4 hPa Calm   6.4 km/h 100 % 0 mm WeatherDisplay:10.37 W/m2 FEW
15:50 10.6 °C 10.6 °C 1013.4 hPa Calm   1.6 km/h 100 % 0 mm WeatherDisplay:10.37 W/m2 FEW
15:55 10.6 °C 10.6 °C 1013.4 hPa Calm   3.2 km/h 100 % 0 mm WeatherDisplay:10.37 W/m2 FEW
16:00 10.6 °C 10.6 °C 1013.4 hPa Calm     100 % 0 mm WeatherDisplay:10.37 W/m2 FEW
16:05 10.6 °C 10.6 °C 1013.4 hPa Calm   6.4 km/h 100 % 0 mm WeatherDisplay:10.37 W/m2 FEW
16:10 10.5 °C 10.5 °C 1013.4 hPa Calm   6.4 km/h 100 % 0 mm WeatherDisplay:10.37 W/m2 FEW
16:15 10.4 °C 10.4 °C 1013.4 hPa Calm   3.2 km/h 100 % 0 mm WeatherDisplay:10.37 W/m2 FEW
16:20 10.4 °C 10.4 °C 1013.4 hPa Calm   4.8 km/h 100 % 0 mm WeatherDisplay:10.37 W/m2 FEW
16:25 10.3 °C 10.3 °C 1013.4 hPa Calm   3.2 km/h 100 % 0 mm WeatherDisplay:10.37 W/m2 FEW
16:30 10.3 °C 10.3 °C 1013.4 hPa Calm   3.2 km/h 100 % 0 mm WeatherDisplay:10.37 W/m2 FEW
16:35 10.2 °C 10.2 °C 1013.4 hPa Calm   6.4 km/h 100 % 0 mm WeatherDisplay:10.37 W/m2 FEW
16:40 10.1 °C 10.1 °C 1013.4 hPa Calm     100 % 0 mm WeatherDisplay:10.37 W/m2 FEW
16:45 10.1 °C 10.1 °C 1013.4 hPa Calm   4.8 km/h 100 % 0 mm WeatherDisplay:10.37 W/m2 FEW
16:50 10 °C 10 °C 1013.4 hPa Calm   4.8 km/h 100 % 0 mm WeatherDisplay:10.37 W/m2 FEW
16:55 9.9 °C 9.9 °C 1013.4 hPa Calm   6.4 km/h 100 % 0 mm WeatherDisplay:10.37 W/m2 FEW
17:00 9.9 °C 9.9 °C 1013.4 hPa Calm   4.8 km/h 100 % 0 mm WeatherDisplay:10.37 W/m2 FEW
17:05 9.9 °C 9.9 °C 1013.4 hPa Calm   8 km/h 100 % 0 mm WeatherDisplay:10.37 W/m2 FEW
17:10 9.8 °C 9.8 °C 1013.4 hPa Calm   4.8 km/h 100 % 0 mm WeatherDisplay:10.37 W/m2 FEW
17:15 9.8 °C 9.8 °C 1013.4 hPa Calm   4.8 km/h 100 % 0 mm WeatherDisplay:10.37 W/m2 FEW
17:20 9.8 °C 9.8 °C 1013.4 hPa Calm   4.8 km/h 100 % 0 mm WeatherDisplay:10.37 W/m2 FEW
17:25 9.7 °C 9.7 °C 1013.4 hPa Calm   11.3 km/h 100 % 0 mm WeatherDisplay:10.37 W/m2 FEW
17:30 9.7 °C 9.7 °C 1013.4 hPa Calm   1.6 km/h 100 % 0 mm WeatherDisplay:10.37 W/m2 FEW
17:35 9.7 °C 9.7 °C 1013.4 hPa Calm   4.8 km/h 100 % 0 mm WeatherDisplay:10.37 W/m2 FEW
17:40 9.7 °C 9.7 °C 1013.4 hPa Calm   3.2 km/h 100 % 0 mm WeatherDisplay:10.37 W/m2 FEW
17:45 9.6 °C 9.6 °C 1013.4 hPa Calm   6.4 km/h 100 % 0 mm WeatherDisplay:10.37 W/m2 FEW
17:50 9.5 °C 9.5 °C 1013.1 hPa Calm   1.6 km/h 100 % 0 mm WeatherDisplay:10.37 W/m2 FEW
17:55 9.5 °C 9.5 °C 1013.4 hPa ENE 1.6 km/h 11.3 km/h 100 % 0 mm WeatherDisplay:10.37 W/m2 FEW
18:00 9.4 °C 9.4 °C 1013.4 hPa Calm   8 km/h 100 % 0 mm WeatherDisplay:10.37 W/m2 FEW
18:05 9.4 °C 9.4 °C 1013.1 hPa Calm   4.8 km/h 100 % 0 mm WeatherDisplay:10.37 W/m2 FEW
18:10 9.4 °C 9.4 °C 1013.1 hPa Calm   6.4 km/h 100 % 0 mm WeatherDisplay:10.37 W/m2 FEW
18:15 9.4 °C 9.4 °C 1013.1 hPa Calm   14.5 km/h 100 % 0 mm WeatherDisplay:10.37 W/m2 FEW
18:20 9.3 °C 9.3 °C 1013.1 hPa Calm   4.8 km/h 100 % 0 mm WeatherDisplay:10.37 W/m2 FEW
18:25 9.3 °C 9.3 °C 1013.4 hPa Calm   6.4 km/h 100 % 0 mm WeatherDisplay:10.37 W/m2 FEW
18:30 9.2 °C 9.2 °C 1013.4 hPa Calm   3.2 km/h 100 % 0 mm WeatherDisplay:10.37 W/m2 FEW
18:35 9.2 °C 8.6 °C 1013.4 hPa Calm   8 km/h 96 % 0 mm WeatherDisplay:10.37 W/m2 FEW
18:40 9.2 °C 8.9 °C 1013.1 hPa East 1.6 km/h 11.3 km/h 98 % 0 mm WeatherDisplay:10.37 W/m2 FEW
18:45 9.2 °C 9.2 °C 1013.1 hPa Calm   8 km/h 100 % 0 mm WeatherDisplay:10.37 W/m2 FEW
18:50 9.1 °C 9.1 °C 1013.1 hPa Calm   8 km/h 100 % 0 mm WeatherDisplay:10.37 W/m2 FEW
18:55 9.1 °C 9.1 °C 1013.1 hPa Calm   1.6 km/h 100 % 0 mm WeatherDisplay:10.37 W/m2 FEW
19:05 9.1 °C 9.1 °C 1013.4 hPa Calm   1.6 km/h 100 % 0 mm WeatherDisplay:10.37 W/m2 FEW
19:10 9.1 °C 9.1 °C 1013.1 hPa Calm   3.2 km/h 100 % 0 mm WeatherDisplay:10.37 W/m2 FEW
19:15 9 °C 9 °C 1013.1 hPa Calm   9.7 km/h 100 % 0 mm WeatherDisplay:10.37 W/m2 FEW
19:20 9 °C 9 °C 1013.1 hPa Calm   3.2 km/h 100 % 0 mm WeatherDisplay:10.37 W/m2 FEW
19:25 9 °C 9 °C 1013.4 hPa Calm   11.3 km/h 100 % 0 mm WeatherDisplay:10.37 W/m2 FEW
19:30 8.9 °C 8.9 °C 1013.4 hPa Calm   8 km/h 100 % 0 mm WeatherDisplay:10.37 W/m2 FEW
19:35 8.9 °C 8.9 °C 1013.1 hPa Calm   4.8 km/h 100 % 0 mm WeatherDisplay:10.37 W/m2 FEW
19:40 8.9 °C 8.9 °C 1013.1 hPa Calm   3.2 km/h 100 % 0 mm WeatherDisplay:10.37 W/m2 FEW
19:45 8.9 °C 8.9 °C 1013.1 hPa Calm   4.8 km/h 100 % 0 mm WeatherDisplay:10.37 W/m2 FEW
19:50 8.9 °C 8.9 °C 1013.1 hPa Calm   1.6 km/h 100 % 0 mm WeatherDisplay:10.37 W/m2 FEW
19:55 8.9 °C 8.9 °C 1013.1 hPa Calm   1.6 km/h 100 % 0 mm WeatherDisplay:10.37 W/m2 FEW
20:00 8.9 °C 8.9 °C 1012.8 hPa Calm   4.8 km/h 100 % 0 mm WeatherDisplay:10.37 W/m2 FEW
20:05 8.9 °C 8.9 °C 1012.8 hPa Calm   1.6 km/h 100 % 0 mm WeatherDisplay:10.37 W/m2 FEW
20:10 8.8 °C 8.8 °C 1012.8 hPa Calm   9.7 km/h 100 % 0 mm WeatherDisplay:10.37 W/m2 FEW
20:15 8.8 °C 8.8 °C 1012.4 hPa Calm     100 % 0 mm WeatherDisplay:10.37 W/m2 FEW
20:20 8.8 °C 8.8 °C 1012.4 hPa Calm   1.6 km/h 100 % 0 mm WeatherDisplay:10.37 W/m2 FEW
20:25 8.8 °C 8.8 °C 1012.4 hPa Calm   4.8 km/h 100 % 0 mm WeatherDisplay:10.37 W/m2 FEW
20:30 8.8 °C 8.8 °C 1012.4 hPa Calm   4.8 km/h 100 % 0 mm WeatherDisplay:10.37 W/m2 FEW
20:35 8.8 °C 8.8 °C 1012.4 hPa Calm     100 % 0 mm WeatherDisplay:10.37 W/m2 FEW
20:40 8.8 °C 8.8 °C 1012.4 hPa Calm   1.6 km/h 100 % 0 mm WeatherDisplay:10.37 W/m2 FEW
20:45 8.8 °C 8.8 °C 1012.4 hPa Calm   4.8 km/h 100 % 0 mm WeatherDisplay:10.37 W/m2 FEW
20:50 8.8 °C 8.8 °C 1012.4 hPa Calm   4.8 km/h 100 % 0 mm WeatherDisplay:10.37 W/m2 FEW
20:55 8.8 °C 8.8 °C 1012.4 hPa Calm   1.6 km/h 100 % 0 mm WeatherDisplay:10.37 W/m2 FEW
21:00 8.8 °C 8.8 °C 1012.4 hPa Calm   1.6 km/h 100 % 0 mm WeatherDisplay:10.37 W/m2 FEW
21:05 8.8 °C 8.8 °C 1012.4 hPa Calm   12.9 km/h 100 % 0 mm WeatherDisplay:10.37 W/m2 FEW
21:10 8.7 °C 8.7 °C 1012.4 hPa Calm   1.6 km/h 100 % 0 mm WeatherDisplay:10.37 W/m2 FEW
21:15 8.7 °C 8.7 °C 1012.1 hPa ESE 1.6 km/h 8 km/h 100 % 0 mm WeatherDisplay:10.37 W/m2 FEW
21:20 8.7 °C 8.7 °C 1012.1 hPa Calm   1.6 km/h 100 % 0 mm WeatherDisplay:10.37 W/m2 FEW
21:25 8.7 °C 8.7 °C 1012.1 hPa Calm   6.4 km/h 100 % 0 mm WeatherDisplay:10.37 W/m2 FEW
21:30 8.6 °C 8.6 °C 1012.1 hPa Calm   9.7 km/h 100 % 0 mm WeatherDisplay:10.37 W/m2 FEW
21:35 8.6 °C 8.6 °C 1011.7 hPa Calm   1.6 km/h 100 % 0 mm WeatherDisplay:10.37 W/m2 FEW
21:40 8.6 °C 8.6 °C 1011.7 hPa Calm   1.6 km/h 100 % 0 mm WeatherDisplay:10.37 W/m2 FEW
21:45 8.6 °C 8.6 °C 1011.7 hPa Calm   9.7 km/h 100 % 0 mm WeatherDisplay:10.37 W/m2 FEW
21:50 8.6 °C 8.6 °C 1011.7 hPa Calm   1.6 km/h 100 % 0 mm WeatherDisplay:10.37 W/m2 FEW
21:55 8.5 °C 8.5 °C 1011.7 hPa Calm   6.4 km/h 100 % 0 mm WeatherDisplay:10.37 W/m2 FEW
22:00 8.5 °C 8.5 °C 1011.7 hPa Calm   3.2 km/h 100 % 0 mm WeatherDisplay:10.37 W/m2 FEW
22:05 8.5 °C 8.5 °C 1011.7 hPa Calm   6.4 km/h 100 % 0 mm WeatherDisplay:10.37 W/m2 FEW
22:10 8.5 °C 8.5 °C 1011.7 hPa Calm   4.8 km/h 100 % 0 mm WeatherDisplay:10.37 W/m2 FEW
22:15 8.5 °C 8.5 °C 1011.7 hPa ENE 1.6 km/h 6.4 km/h 100 % 0 mm WeatherDisplay:10.37 W/m2 FEW
22:20 8.4 °C 8.4 °C 1011.7 hPa Calm   1.6 km/h 100 % 0 mm WeatherDisplay:10.37 W/m2 FEW
22:25 8.4 °C 8.4 °C 1011.7 hPa Calm   4.8 km/h 100 % 0 mm WeatherDisplay:10.37 W/m2 FEW
22:30 8.4 °C 8.4 °C 1011.7 hPa Calm   3.2 km/h 100 % 0 mm WeatherDisplay:10.37 W/m2 FEW
22:35 8.3 °C 8.3 °C 1011.4 hPa Calm   4.8 km/h 100 % 0 mm WeatherDisplay:10.37 W/m2 FEW
22:40 8.3 °C 8.3 °C 1011.7 hPa Calm     100 % 0 mm WeatherDisplay:10.37 W/m2 FEW
22:45 8.3 °C 8.3 °C 1011.7 hPa Calm   1.6 km/h 100 % 0 mm WeatherDisplay:10.37 W/m2 FEW
22:50 8.3 °C 8.3 °C 1011.7 hPa Calm   1.6 km/h 100 % 0 mm WeatherDisplay:10.37 W/m2 FEW
22:55 8.2 °C 7.6 °C 1011.4 hPa Calm   11.3 km/h 96 % 0 mm WeatherDisplay:10.37 W/m2 FEW
23:00 8.2 °C 7.6 °C 1011.1 hPa Calm   12.9 km/h 96 % 0 mm WeatherDisplay:10.37 W/m2 FEW
23:05 8.1 °C 7.6 °C 1011.1 hPa Calm   12.9 km/h 96 % 0 mm WeatherDisplay:10.37 W/m2 FEW
23:10 8.1 °C 7.5 °C 1011.4 hPa Calm   4.8 km/h 96 % 0 mm WeatherDisplay:10.37 W/m2 FEW
23:15 8.1 °C 7.4 °C 1011.4 hPa Calm   4.8 km/h 96 % 0.25 mm WeatherDisplay:10.37 W/m2 RA
23:20 8.1 °C 7.4 °C 1011.4 hPa Calm   3.2 km/h 96 % 0.25 mm WeatherDisplay:10.37 W/m2 RA
23:25 8 °C 7.4 °C 1011.1 hPa Calm   4.8 km/h 96 % 0.25 mm WeatherDisplay:10.37 W/m2 RA
23:30 8 °C 7.4 °C 1011.1 hPa Calm   4.8 km/h 96 % 0 mm WeatherDisplay:10.37 W/m2 RA
23:35 7.9 °C 7.3 °C 1011.1 hPa Calm   8 km/h 96 % 0 mm WeatherDisplay:10.37 W/m2 FEW
23:40 7.9 °C 7.3 °C 1011.1 hPa Calm   8 km/h 96 % 0 mm WeatherDisplay:10.37 W/m2 FEW
23:45 7.9 °C 7.3 °C 1010.7 hPa Calm   3.2 km/h 96 % 0.25 mm WeatherDisplay:10.37 W/m2 RA
23:50 7.8 °C 7.2 °C 1011.1 hPa Calm   1.6 km/h 96 % 0 mm WeatherDisplay:10.37 W/m2 RA
23:55 7.8 °C 7.2 °C 1011.1 hPa Calm   11.3 km/h 96 % 0 mm WeatherDisplay:10.37 W/m2 FEW
Juneau County Weather
Compliments of Weather Underground - 2.75 mb